IRIDIUM 167 (43931 NORAD) Tracking and Keplerian Element Data

This shows tracking and keplerian element data for the satellite.

Feedback or suggestion? Click here.




ElementValue
Catalog43931
NameIRIDIUM 167
Epoch Orbit28296
Epoch Day159.67845944
Epoch Year2024
RAAN302.6354
Inclination86.395
Eccentricity0.0002178
Argument of Perigee94.5921
Mean Anonmoly265.5523
Mean Motion14.34217245
Decay Rate7E-07
L11 43931U 19002K 24159.67845944 .00000070 00000+0 18005-4 0 9994
L22 43931 86.3950 302.6354 0002178 94.5921 265.5523 14.34217245282962



Live tracking and technical data element details for IRIDIUM 167 (NORAD 43931). IRIDIUM 167 can be tracked NOW for your location showing map with azimuth and elevation plus other details from your city location.







IsCatalogInMostPopularTable: catalog: 43931, numindb: 634
Update: records affected: 1



GetName: 43931 IRIDIUM 167

Hit Count: updated at: Mon, 17 Jun 2024 23:50:21 GMT